#timestamp,LO_Frequency,Hit,StdDev 
1627830015.0,286047002.8,N
1627830015.9,286047002.8,N
1627830035.8,286047002.4,N
1627830055.6,286047002.3,N
1627830075.4,286047002.4,N
1627830095.3,286047000.9,N
1627830115.1,286047001.2,N
1627830135.8,286047000.7,N
1627830155.7,286047000.8,N
1627830175.5,286046998.4,N
1627830195.4,286046998.1,N
1627830215.2,286046998.5,N
1627830235.0,286047000.9,N
1627830235.9,286047000.9,N
1627830255.8,286046998.4,N
1627830275.6,286047000.5,N
1627830295.5,286046998.6,N
1627830315.3,286047000.8,N
1627830335.1,286047000.8,N
1627830355.9,286047000.5,N
1627830375.7,286047000.2,N
1627830395.5,286047000.6,N
1627830415.4,286047000.9,N
1627830435.2,286046999.9,N
1627830455.1,286047000.3,N
1627830456.0,286047000.3,N
1627830475.8,286047000.4,N
1627830495.6,286047000.9,N
1627830515.5,286047001.0,N
1627830535.3,286046998.4,N
1627830585.2,286046998.7,E
1627830595.1,286046998.5,N
1627830615.8,286047000.3,P
1627830635.7,286046998.2,N
1627830655.5,286046998.7,N
1627830675.4,286046996.5,Y
1627830695.2,286046998.2,P
1627830715.0,286046998.4,P
1627830715.9,286046998.4,P
1627830735.8,286047000.5,N
1627830755.6,286046999.9,N
1627830775.4,286047000.1,N
1627830795.3,286047000.0,N
1627830815.1,286047000.9,N
1627830835.9,286047000.4,N
1627830855.7,286047000.1,N
1627830875.5,286047000.8,N
1627830895.4,286047002.8,N
1627830915.2,286047001.6,N
1627830935.0,286047002.3,N
1627830935.9,286047002.3,N
1627830955.8,286047001.9,N
1627830975.6,286047002.4,N
1627830995.5,286047001.3,N
1627831015.3,286047002.0,N
1627831035.1,286047000.1,N
1627831055.9,286047002.5,N
1627831075.7,286047002.5,N
1627831095.6,286047002.1,N
1627831115.4,286047001.7,N
1627831135.2,286047001.6,N
1627831155.1,286047002.5,N
1627831156.0,286047002.5,N
1627831175.8,286047002.0,N
1627831195.6,286047000.2,N
1627831215.5,286047002.1,N
1627831235.3,286047004.3,Y
1627831255.2,286047001.6,P
1627831275.9,286047001.7,P
1627831295.7,286047002.8,P
1627831315.6,286047002.4,Y
1627831335.4,286047000.8,P
1627831355.2,286047000.6,N
1627831375.1,286046998.9,N
1627831376.0,286046998.9,N
1627831395.8,286046998.4,N
1627831415.7,286046998.7,N
1627831435.5,286046999.2,N
1627831455.3,286046998.5,N
1627831475.2,286047000.8,N
1627831495.9,286047000.1,N
1627831515.7,286047000.3,N
1627831535.6,286047000.1,N
1627831555.4,286047000.9,N
1627831575.2,286047000.8,N
1627831595.1,286047000.1,N
1627831596.0,286047000.1,N
1627831615.8,286046999.9,N
1627831635.7,286047000.3,N
1627831655.5,286046998.2,N
1627831675.3,286047000.1,N
1627831695.2,286047002.8,N
1627831715.0,286047002.5,N
1627831715.9,286047002.5,N
1627831735.7,286047001.9,N
1627831755.6,286047000.1,N
1627831775.4,286047000.1,N
1627831795.3,286046999.8,N
1627831815.1,286047000.2,N
1627831816.0,286047000.2,N
1627831835.8,286047001.0,N
1627831855.7,286047001.0,N
1627831875.5,286047000.7,N
1627831895.4,286047000.1,N
1627831915.2,286047002.8,N
1627831935.0,286047000.5,N
1627831935.9,286047000.5,N
1627831955.8,286047001.9,N
1627831975.6,286046999.7,N
1627831995.4,286046999.9,N
1627832015.3,286046998.3,N
1627832035.1,286047000.9,N
1627832055.9,286046998.4,N
1627832075.7,286046997.3,N
1627832095.5,286046999.5,N
1627832115.4,286047000.5,N
1627832135.2,286047001.1,N
1627832155.1,286046999.7,N
1627832156.0,286046999.7,N
1627832175.8,286046999.9,N
1627832195.6,286046998.1,N
1627832215.5,286046998.3,N
1627832235.3,286046998.9,N
1627832255.1,286046999.1,N
1627832275.9,286046998.8,N
1627832295.7,286046996.8,N
1627832315.6,286046997.0,N
1627832335.4,286046996.9,N
1627832355.2,286046996.9,N
1627832375.1,286046999.6,N
1627832376.0,286046999.6,N
1627832395.8,286046998.9,N
1627832415.7,286046996.6,N
1627832435.5,286046998.9,N
1627832455.3,286046999.0,N
1627832475.2,286046998.9,N
1627832495.0,286046998.5,N
1627832495.9,286046998.5,N
1627832515.8,286047002.3,N
1627832535.6,286047001.5,N
1627832555.4,286047002.8,N
1627832575.3,286047000.2,N
1627832595.1,286047002.3,N
1627832615.8,286047002.7,N
1627832635.7,286046998.3,N
1627832655.5,286046998.2,N
1627832675.4,286046999.4,N
1627832695.2,286046996.6,N
1627832715.0,286046997.1,N
1627832715.9,286046997.1,N
1627832735.8,286046998.3,N
1627832755.6,286046998.1,N
1627832775.5,286047000.5,N
1627832795.3,286047001.9,N
1627832815.1,286046999.7,N
1627832835.9,286047002.3,N
1627832855.7,286047001.1,N
1627832875.5,286046998.8,N
1627832895.4,286046998.5,N
1627832915.2,286047001.2,N
1627832935.1,286046998.2,N
1627832936.0,286046998.2,N
1627832955.8,286046999.3,N
1627832975.6,286046999.1,N
1627832995.5,286046999.0,N
1627833015.3,286046999.3,N
1627833035.1,286046997.2,N
1627833055.9,286046996.5,N
1627833075.7,286046998.3,N
1627833095.6,286047001.0,N
1627833115.4,286047001.1,N
1627833135.2,286047000.0,N
1627833155.1,286046999.7,N
1627833156.0,286046999.7,N
1627833175.8,286047000.0,N
1627833195.6,286047000.8,N
1627833215.5,286046998.8,N
1627833235.3,286047001.0,N
1627833255.1,286047000.4,N
1627833275.9,286047000.9,N
1627833295.7,286046998.8,N
1627833315.6,286046998.5,N
1627833335.4,286047000.6,N
1627833355.2,286046998.5,N
1627833375.1,286047000.5,N
1627833376.0,286047000.5,N
1627833395.8,286047002.4,N
1627833415.6,286047002.4,N
1627833435.5,286047000.6,N
1627833455.3,286047000.3,N
1627833475.2,286046998.4,N
1627833495.9,286047000.2,N
1627833515.7,286047000.2,N
1627833535.6,286047000.3,N
1627833555.4,286047000.3,N
1627833575.2,286046999.7,N
1627833595.1,286047002.6,N
1627833596.0,286047002.6,N
